Theta_e
292 292 292 293 293 294 294 295 296 298 297 301 301 301 302 302 302 297 293 297 290 285 286 287 287 284 285 285 281 281 283 283 282 279 279 278 277 279 278 281 280 280 280 280 282 280 278 290 290 289 289 291 291 292
292 292 292 293 293 293 293 294 295 296 295 298 301 301 302 302 302 300 288 296 295 287 285 289 289 290 290 289 286 282 284 280 285 282 281 280 277 281 279 275 284 279 284 282 284 284 292 293 293 295 293 290 292 294
292 291 292 292 292 293 293 293 294 295 296 294 301 301 301 301 301 300 289 293 291 285 284 284 284 289 290 290 293 284 284 287 285 287 284 282 277 281 276 279 282 285 289 284 283 288 289 291 294 295 292 292 294 293
291 291 291 291 291 292 293 293 293 294 295 294 300 300 300 301 301 300 290 293 291 286 280 280 286 285 289 290 289 290 289 288 288 287 282 281 278 284 279 280 280 283 285 284 284 287 289 290 291 292 291 291 291 289
291 291 291 291 291 291 292 293 293 294 295 294 299 300 300 300 301 298 292 293 293 286 278 277 280 286 288 287 286 287 286 285 284 281 280 278 283 282 283 282 280 285 283 280 280 286 286 289 291 288 287 288 289 288
291 291 291 291 291 291 291 292 292 293 294 293 297 299 300 300 300 294 282 291 293 290 281 275 281 280 285 286 286 285 286 285 284 282 281 282 285 282 277 276 283 286 286 287 285 288 289 290 289 288 287 287 285 285
291 291 290 291 291 292 292 292 292 293 294 293 298 298 299 299 296 286 283 288 294 291 281 275 276 278 281 282 282 283 285 284 284 281 280 281 281 283 279 275 282 284 286 287 288 287 285 288 287 285 284 285 282 280
289 290 291 291 291 292 292 292 293 294 292 295 298 298 298 299 296 287 291 295 293 285 282 272 272 275 281 277 277 282 280 281 281 281 282 280 282 282 275 281 283 285 286 287 286 285 286 281 280 281 281 281 281 281
290 291 291 291 291 292 292 293 294 294 296 297 296 297 294 289 284 286 294 295 289 284 276 273 271 271 280 279 280 280 282 276 282 278 278 280 277 274 279 280 281 276 276 276 275 275 276 276 278 277 277 278 280 278
290 290 290 291 290 290 294 293 294 296 296 296 292 284 280 284 294 293 287 281 281 281 276 273 271 272 278 277 277 277 279 276 274 277 280 277 276 280 269 266 266 265 266 266 270 273 273 273 274 274 273 272 273 274
290 290 290 290 291 293 293 292 295 294 295 284 280 278 286 292 284 280 276 275 275 273 276 273 272 273 277 273 274 277 273 274 270 274 275 274 273 272 264 262 262 262 263 264 263 266 266 267 270 272 269 267 268 268
291 290 291 291 293 294 293 293 295 287 284 283 284 286 284 280 277 273 271 272 270 269 270 272 273 276 275 277 275 273 272 270 268 273 272 270 271 258 258 259 260 260 259 261 262 262 262 262 263 266 265 264 263 263
290 290 291 291 292 293 293 294 292 291 289 285 281 277 275 272 270 268 265 266 268 266 268 272 272 274 276 278 274 272 269 269 269 270 269 270 256 256 255 256 256 258 259 260 260 260 260 259 259 260 260 260 261 260
290 290 290 291 292 292 293 293 292 289 283 278 274 268 270 267 268 265 267 266 264 268 271 273 273 274 274 274 274 270 272 269 267 264 267 254 254 253 253 255 254 255 256 257 258 258 258 257 257 257 257 258 258 257
289 290 290 290 291 292 291 289 283 274 274 271 272 266 265 256 254 253 255 258 257 260 265 269 270 276 273 274 274 269 266 265 266 266 256 253 252 252 253 253 253 254 254 255 256 256 256 256 255 255 255 257 257 257
288 288 286 291 289 288 285 279 272 270 260 260 254 258 255 259 256 253 252 253 256 259 260 265 270 272 269 271 267 267 266 265 262 252 252 253 252 253 253 253 254 254 254 254 255 255 255 255 254 254 255 255 256 256
285 282 287 286 284 281 281 271 267 260 256 253 250 250 250 251 250 249 250 253 257 256 263 264 264 265 266 263 260 256 260 252 251 251 251 252 252 252 253 254 254 254 254 255 255 255 256 256 257 256 254 255 255 255
279 283 284 283 275 273 266 266 262 258 252 253 251 250 250 250 250 250 251 254 255 256 259 261 261 261 265 261 260 251 251 252 252 252 253 253 253 253 253 253 254 254 254 254 254 255 256 256 255 255 255 256 255 255
278 278 281 280 274 266 264 261 262 254 253 253 253 253 251 251 252 252 252 254 254 254 256 256 258 257 253 248 248 248 250 251 252 253 253 253 253 253 253 254 253 253 253 253 253 253 253 253 253 255 255 255 254 255
276 277 277 275 271 261 257 258 260 255 254 254 255 252 251 250 250 249 250 251 251 249 248 248 246 245 246 248 248 249 250 252 253 252 252 253 254 253 252 253 253 254 254 253 253 254 254 252 252 252 252 253 252 251
269 269 270 265 259 258 255 255 254 254 254 252 253 252 251 250 247 246 247 250 248 246 245 244 245 246 246 246 248 248 250 251 253 254 253 251 253 253 252 253 253 253 252 252 251 251 251 250 251 251 251 250 250 250
263 267 258 261 258 255 254 255 255 255 252 250 251 249 247 246 245 246 248 246 245 245 245 245 245 244 244 244 245 247 249 249 252 254 254 253 252 251 251 251 251 250 249 250 250 250 249 250 251 250 250 250 250 250
261 260 254 253 253 252 250 253 251 251 249 250 251 247 246 245 248 251 244 243 244 247 244 243 243 242 244 245 245 247 248 250 250 250 250 250 250 250 250 250 251 250 249 249 250 249 249 250 250 250 250 249 249 249
256 248 245 244 246 244 245 245 248 248 248 247 249 247 246 243 248 244 241 240 243 245 244 243 242 244 245 245 246 246 247 250 250 250 250 250 248 247 248 248 248 248 248 249 249 248 248 248 248 248 247 247 246 246
252 241 244 240 242 242 240 240 242 246 244 241 242 243 243 243 243 241 241 241 242 241 243 244 245 246 245 246 248 248 248 251 250 248 249 249 248 248 248 247 247 246 246 249 247 247 246 245 245 245 245 244 243 243
239 240 239 237 239 239 238 237 237 238 240 242 240 242 241 242 243 241 243 244 245 243 244 246 247 247 247 249 249 249 248 248 251 249 248 250 250 250 249 249 248 247 243 243 244 244 244 244 243 242 243 243 243 242
237 237 238 238 240 240 238 238 237 238 238 239 239 241 242 240 239 242 246 247 247 246 248 248 247 249 248 247 247 247 247 248 248 249 248 247 247 247 248 248 247 247 243 242 242 242 243 242 242 242 242 243 242 243
238 236 237 237 237 233 233 233 233 235 237 240 239 239 239 240 241 243 245 246 243 244 246 247 248 248 248 248 248 248 247 247 247 248 247 247 247 246 245 245 245 247 244 243 242 241 239 240 241 241 242 243 244 245
238 237 237 235 234 236 235 235 235 236 240 235 237 238 239 241 240 238 242 243 242 243 242 244 246 247 247 247 247 247 248 248 248 249 249 250 249 248 246 245 244 244 242 240 243 249 247 245 244 245 245 245 245 245
239 236 236 234 235 236 237 237 235 235 235 239 239 242 241 240 241 244 242 242 242 241 240 240 242 246 248 248 248 248 247 248 248 249 249 249 249 246 244 242 242 241 240 238 242 242 244 244 243 241 243 243 243 244
240 236 237 237 239 239 239 239 239 240 242 241 240 238 239 241 246 247 247 246 242 239 240 241 241 245 246 248 248 248 249 247 246 247 246 245 243 240 240 241 241 240 237 238 239 238 240 241 241 240 241 241 242 243
240 237 240 240 241 241 240 239 241 242 243 243 241 239 240 241 244 244 245 241 238 239 243 245 245 247 248 248 248 248 248 247 245 245 244 243 242 242 241 241 239 237 238 240 240 240 241 240 241 242 242 242 243 243
238 239 239 241 241 242 240 239 243 243 242 242 242 240 239 241 244 245 244 244 244 246 246 247 246 245 246 246 245 244 245 243 242 247 250 249 247 247 242 241 242 243 242 242 243 243 242 242 242 242 242 243 243 244
Wind_Speed
29 30 31 30 28 29 30 30 29 30 24 30 30 31 30 30 30 17 8 13 9 4 5 7 9 6 4 6 7 4 3 2 4 5 6 7 7 9 12 18 10 12 9 7 7 10 9 3 4 10 2 6 11 16
30 30 28 29 27 30 30 32 31 31 24 30 32 31 31 31 31 28 3 11 8 3 3 4 3 2 6 6 5 3 2 4 6 5 2 2 4 4 10 14 17 17 12 10 10 10 3 4 5 7 5 5 17 15
34 28 25 29 27 30 32 33 33 31 26 26 32 32 33 31 32 27 6 10 8 5 3 3 7 7 3 5 5 6 3 4 4 3 2 3 6 4 4 8 11 4 5 6 5 5 11 9 9 9 5 13 17 12
32 27 27 27 27 29 30 31 34 31 26 25 33 32 31 31 30 29 6 9 10 4 5 4 1 6 8 9 10 10 10 2 1 1 4 4 6 6 9 9 10 9 6 5 9 11 12 13 8 6 8 10 11 6
31 29 28 30 28 26 26 30 31 31 28 30 32 30 29 30 30 20 7 11 12 9 5 2 1 5 4 11 14 12 12 11 6 6 5 8 6 6 9 10 13 11 11 7 9 13 13 15 6 3 6 9 9 9
28 28 33 30 30 31 30 30 31 29 24 26 27 30 29 28 28 11 3 8 13 6 5 4 1 3 5 7 10 12 10 8 6 6 6 6 5 6 7 13 21 20 19 18 18 20 15 15 8 6 6 3 6 8
25 28 27 30 35 35 32 30 29 28 24 26 27 28 27 29 17 6 5 8 21 7 4 4 3 1 3 3 3 2 5 5 5 5 8 10 11 7 10 18 22 21 22 17 14 7 9 13 9 4 6 3 2 3
20 23 25 26 22 21 24 27 30 28 18 26 28 27 28 29 19 8 3 24 18 6 3 5 2 3 5 5 4 5 4 5 5 6 4 9 6 8 11 20 19 23 20 16 14 13 8 2 3 5 4 4 5 4
20 25 25 21 18 19 19 30 29 24 29 26 18 27 11 8 5 5 22 27 5 3 5 4 8 5 5 4 3 4 4 5 4 7 9 7 9 11 12 11 5 2 5 10 5 4 5 8 5 2 2 4 5 4
19 13 13 12 11 8 23 22 23 29 27 31 13 3 3 2 31 21 9 4 3 3 3 3 0 5 6 5 5 3 3 3 4 5 2 8 15 18 5 6 5 6 8 10 5 5 3 4 3 3 1 1 2 3
11 10 11 9 10 14 15 11 22 25 25 3 4 3 5 19 6 3 4 4 3 3 3 3 4 6 4 5 4 4 3 2 3 4 5 4 6 1 9 8 9 9 9 7 6 6 7 8 4 2 3 3 2 5
11 7 9 6 21 20 21 16 29 7 3 6 11 7 3 4 3 5 3 2 3 5 3 6 4 3 2 3 3 2 3 1 7 2 4 5 2 7 9 11 11 10 10 9 7 6 7 7 8 3 2 2 2 4
12 12 15 15 20 20 19 23 19 28 17 4 6 4 2 2 6 5 5 1 3 4 5 5 5 4 3 2 3 4 5 7 1 4 6 2 4 9 11 10 11 10 10 8 7 6 5 5 7 7 4 5 3 7
14 14 15 15 16 16 22 26 27 10 6 4 3 5 2 4 3 4 4 5 2 1 6 4 5 4 3 6 3 4 3 2 4 3 6 3 8 9 9 8 7 10 10 8 8 6 5 7 5 7 8 5 5 8
13 14 15 14 14 15 18 24 18 7 6 4 3 4 2 4 4 1 0 4 3 2 1 3 2 3 3 3 5 3 3 5 5 4 2 4 9 8 9 10 9 7 6 5 5 4 5 6 6 10 10 7 7 9
11 13 9 22 24 23 20 16 10 5 6 5 10 5 0 4 3 3 4 3 4 3 2 1 3 3 2 2 3 5 3 6 1 2 3 7 8 7 7 7 7 6 5 4 4 5 6 8 9 8 9 8 9 10
14 6 17 19 21 26 23 8 5 9 6 7 4 2 1 6 5 2 1 2 4 2 3 3 6 6 2 1 3 4 3 1 1 2 3 5 7 8 6 5 5 5 4 5 6 7 8 7 8 8 11 9 9 10
8 9 13 13 8 10 6 7 6 7 8 5 5 4 4 4 3 2 2 3 2 1 1 2 3 3 5 5 3 2 1 1 2 3 3 4 3 3 3 4 5 5 4 6 7 8 8 8 9 8 8 6 8 9
13 13 17 15 10 7 6 6 5 7 5 3 4 4 3 3 4 4 2 3 3 2 2 2 4 3 2 1 2 1 0 1 1 1 1 3 4 4 3 4 6 6 7 7 7 6 7 9 7 6 6 6 6 6
11 25 18 21 10 6 7 5 4 6 4 3 3 3 3 3 1 3 5 5 3 3 6 5 2 1 1 1 0 1 2 4 1 1 0 2 3 4 5 4 5 5 6 6 6 8 6 7 7 7 7 7 7 6
11 11 17 9 7 9 7 3 5 3 4 4 2 2 2 2 3 4 5 6 5 4 3 1 1 2 3 3 2 2 4 4 4 1 1 2 2 3 4 4 4 5 5 4 6 7 8 6 5 6 6 6 5 4
4 13 5 9 7 6 6 6 3 2 4 2 3 2 3 4 4 4 2 6 3 0 1 1 1 1 2 2 2 2 3 1 3 5 6 5 3 3 4 3 5 5 5 6 5 6 5 6 4 4 5 4 4 4
8 8 7 10 8 8 2 5 6 5 5 2 2 4 3 2 1 2 4 1 2 1 2 2 2 2 2 2 3 3 3 3 4 4 4 5 5 5 5 4 2 4 5 5 4 3 4 4 4 3 3 3 3 3
13 11 10 8 8 3 3 6 4 4 4 4 3 3 2 1 0 4 1 3 3 1 2 2 2 2 3 3 2 2 3 3 5 5 4 5 5 4 4 4 4 4 4 1 2 3 3 3 3 3 3 3 4 4
11 13 8 9 5 6 8 6 6 5 4 3 3 2 2 2 2 1 2 3 2 2 2 2 2 2 3 1 1 1 3 2 4 5 2 4 6 4 3 3 3 2 1 2 2 1 1 1 2 3 4 3 5 6
13 6 6 5 5 5 1 4 3 1 2 3 0 3 2 2 1 2 1 1 0 0 1 1 1 2 2 1 2 2 2 3 1 3 2 2 2 1 3 2 1 1 1 1 1 0 2 2 3 4 5 5 5 6
8 5 3 0 1 2 4 3 1 4 4 2 2 4 2 2 3 2 1 1 0 0 1 1 1 0 2 2 2 2 2 2 3 3 3 3 3 1 1 2 2 1 2 1 1 1 2 4 4 5 6 6 5 5
3 2 4 4 4 2 4 3 3 2 1 3 0 2 2 4 3 1 0 1 1 1 2 1 2 2 3 3 2 3 2 2 3 2 2 2 2 2 2 2 0 3 1 2 2 2 3 5 5 6 6 7 9 6
4 3 4 5 4 5 3 2 2 3 2 3 2 1 2 2 2 2 2 1 1 2 2 1 1 1 2 1 1 1 2 3 3 3 2 1 2 3 4 3 2 2 2 3 8 9 8 8 8 8 8 7 8 8
3 1 4 2 5 2 4 4 3 4 2 3 2 2 2 3 3 3 1 1 1 2 3 3 1 2 2 2 2 3 3 3 4 3 3 3 2 2 2 2 3 3 3 3 5 5 8 6 7 5 6 6 6 7
0 3 4 3 2 2 3 2 2 2 2 1 1 3 3 3 3 3 3 3 3 2 3 1 2 3 3 3 3 2 2 3 5 5 4 3 2 3 4 4 4 3 3 3 4 4 6 6 6 8 9 11 12 11
3 4 3 3 1 1 2 2 1 1 1 1 2 1 3 2 3 3 4 4 3 2 6 4 3 4 4 3 2 2 4 1 3 4 5 4 5 6 5 4 4 3 4 5 6 7 8 10 9 9 11 14 15 14
2 1 1 2 2 1 3 3 2 2 1 1 2 2 1 1 4 3 1 4 4 4 5 5 5 2 3 4 4 3 5 3 5 9 9 11 12 10 5 4 4 5 7 8 8 8 10 12 12 14 15 15 16 16
Wind_Direction
281 277 269 264 264 259 259 259 252 263 274 237 223 221 212 208 206 196 184 181 180 197 236 207 175 161 134 184 199 147 147 163 169 211 212 217 240 232 231 243 260 260 254 245 235 233 247 20 136 226 24 339 338 315
278 278 263 264 262 269 263 258 251 251 233 268 219 214 211 206 206 195 163 176 164 179 174 224 215 208 186 168 154 197 206 159 210 203 216 254 264 247 226 246 236 241 232 250 245 259 164 224 243 251 192 272 290 288
284 276 256 258 262 269 264 258 251 246 248 280 221 214 205 203 205 197 146 166 160 160 219 183 191 209 156 181 180 206 212 210 227 210 265 220 226 235 265 258 253 290 265 253 332 259 283 287 273 257 276 235 237 245
270 264 257 262 263 267 267 256 249 242 245 252 216 208 205 205 202 195 161 175 170 114 202 205 40 204 193 186 190 211 239 196 89 197 239 238 243 212 251 255 259 266 292 251 269 268 278 273 254 245 255 268 274 252
265 264 263 263 268 267 270 259 242 232 234 233 215 200 203 203 198 195 165 175 178 169 161 174 179 230 173 185 210 210 214 222 226 229 227 246 239 245 253 270 256 225 233 247 263 279 276 275 297 268 282 298 308 287
264 266 265 261 263 263 266 252 234 224 222 239 232 196 197 196 194 184 152 191 178 126 129 165 358 208 169 176 191 196 198 203 208 210 214 216 234 234 254 246 249 249 257 244 257 268 272 281 275 252 258 278 296 289
264 261 266 272 268 260 245 240 237 221 209 235 207 197 195 190 191 180 178 158 164 115 130 143 196 74 85 115 145 188 190 218 214 226 226 243 244 226 247 253 255 259 259 256 244 221 252 248 260 235 268 279 316 322
265 272 274 273 258 242 228 229 219 215 216 229 193 192 186 194 173 145 159 148 143 114 135 140 146 157 185 154 184 179 186 190 213 230 235 228 227 221 244 251 256 253 254 241 227 219 263 334 279 258 292 299 237 226
289 281 262 256 242 248 245 195 200 188 190 179 202 175 165 180 168 148 134 143 68 130 141 139 148 177 165 167 158 174 195 217 209 215 224 214 226 227 242 248 274 318 263 304 333 245 243 232 202 206 260 269 237 204
293 263 238 236 242 249 179 156 177 175 162 161 137 112 99 176 113 107 132 141 145 140 100 120 52 139 179 163 177 185 203 221 240 227 177 226 244 246 34 42 35 354 341 338 296 276 276 238 186 167 152 357 338 42
303 240 252 249 216 153 128 163 176 165 134 46 97 94 106 102 69 58 115 149 131 117 135 130 172 136 216 138 170 223 197 190 232 219 222 226 250 108 17 22 10 356 350 338 319 315 329 342 335 195 123 67 36 75
60 94 89 132 136 143 125 124 139 81 85 110 106 86 85 90 94 105 104 108 104 176 141 150 173 159 144 111 132 181 214 185 231 132 212 233 143 27 2 350 347 351 343 332 350 339 346 350 342 355 42 41 75 91
89 93 99 98 115 127 132 120 101 112 112 67 64 82 93 16 108 136 136 107 133 175 175 165 140 126 116 185 160 146 212 234 22 210 224 257 23 358 348 341 337 328 338 340 340 346 4 26 21 9 42 19 41 80
66 73 79 89 100 121 131 131 127 97 69 72 96 103 93 107 112 162 157 142 88 195 149 143 123 150 179 175 150 213 219 159 232 239 234 21 355 336 324 329 335 335 336 335 341 350 7 36 34 31 34 20 55 71
63 63 63 72 83 104 109 90 66 46 52 69 43 92 87 105 56 81 61 98 16 342 99 102 84 193 179 159 182 138 191 242 220 231 18 339 329 328 333 338 334 332 335 340 343 2 43 52 49 50 31 33 64 83
53 50 59 79 81 74 64 56 34 69 59 61 32 90 84 89 112 51 19 73 356 330 333 283 155 147 190 190 161 216 201 217 162 330 319 320 325 332 339 340 336 334 345 7 31 47 62 61 61 65 57 45 53 68
57 33 80 87 81 65 49 65 51 50 62 53 48 40 84 59 74 83 24 2 326 277 183 142 118 195 75 94 243 195 222 149 266 298 298 314 319 326 331 343 2 13 29 54 71 67 71 77 83 81 74 53 61 63
43 50 73 64 60 57 46 36 75 62 59 34 54 7 42 41 76 54 349 342 308 326 311 95 91 145 185 197 212 117 122 208 234 287 329 338 341 341 355 20 27 38 57 55 58 60 60 69 77 74 79 73 74 64
58 42 44 57 72 81 67 37 34 84 65 84 93 62 68 90 64 37 5 3 46 16 66 38 116 181 186 143 137 133 73 257 265 265 348 2 15 23 31 51 62 57 59 56 60 66 64 53 54 53 60 62 61 49
40 34 34 42 55 75 66 34 48 76 80 93 61 57 59 51 20 5 11 15 31 39 44 47 74 138 175 199 189 223 276 305 240 211 28 23 18 47 38 42 55 63 66 56 57 62 77 69 47 47 47 47 58 47
29 357 14 45 47 56 81 26 54 86 114 77 132 68 69 49 40 20 12 349 55 36 80 117 192 253 280 269 269 262 271 265 248 238 193 126 41 57 61 53 59 61 66 59 73 63 54 59 46 45 59 61 58 47
355 12 52 15 74 59 72 22 78 103 70 126 68 53 37 34 19 14 312 42 54 62 173 187 247 254 346 344 292 296 277 337 50 92 93 118 114 81 60 48 66 72 64 52 56 62 54 45 38 45 53 41 33 46
18 29 48 14 72 48 353 351 67 15 79 75 70 57 33 45 11 90 63 21 241 252 204 206 238 211 172 300 32 9 19 89 96 94 95 94 85 69 62 49 59 95 84 51 41 62 64 44 42 46 36 35 13 26
31 46 35 38 27 62 346 25 22 50 49 43 49 69 29 295 19 55 90 259 253 305 26 318 116 54 19 27 40 2 355 89 97 87 90 113 104 83 79 67 56 54 49 67 51 50 43 38 15 34 20 9 15 6
70 1 22 13 10 42 38 21 4 50 70 11 82 30 312 33 89 121 220 272 335 343 323 346 65 119 133 118 107 54 9 77 136 118 62 103 112 116 94 78 68 54 316 166 107 86 58 3 8 359 355 353 343 335
69 355 49 10 360 61 359 67 37 69 51 74 324 281 14 93 94 213 210 259 284 321 13 32 53 71 69 31 143 116 46 359 106 111 138 105 84 112 128 163 206 169 57 56 149 74 356 355 337 330 317 315 304 304
62 353 345 92 104 84 52 32 51 68 63 52 333 348 45 96 246 246 165 37 311 356 1 11 313 319 131 122 82 48 18 3 36 73 109 99 82 41 157 178 210 155 160 193 224 224 280 302 301 298 295 297 277 273
127 65 69 317 47 27 106 53 49 61 288 295 58 47 160 189 223 216 225 35 178 41 65 37 34 60 98 99 112 126 104 99 102 114 127 113 122 140 131 128 198 141 183 227 247 235 231 246 258 267 270 275 289 283
43 321 79 26 31 42 65 125 236 248 230 106 131 252 254 244 225 222 272 250 182 115 85 77 77 97 102 130 161 182 191 194 207 213 205 205 200 195 197 212 231 264 289 274 266 261 240 234 243 254 263 268 275 281
325 93 84 67 72 358 261 171 229 248 230 196 201 308 312 286 245 186 170 120 156 207 199 167 191 227 201 214 208 217 208 217 228 248 253 247 232 119 186 222 251 253 248 250 279 296 306 315 311 308 297 285 276 279
182 65 72 57 101 243 229 255 274 256 263 256 194 158 238 287 291 214 210 195 168 137 124 199 239 216 209 217 224 245 248 189 220 235 245 262 256 247 248 245 241 241 234 259 275 274 281 284 270 273 278 279 279 273
13 51 96 97 260 286 24 14 269 257 307 220 279 332 343 5 271 242 191 127 114 197 225 213 213 234 207 218 229 248 254 244 228 231 228 236 244 246 246 244 234 217 235 248 243 247 249 251 267 269 272 272 270 268
43 35 48 64 26 8 10 344 16 335 9 353 342 350 286 249 250 272 261 219 186 194 204 212 218 205 214 211 215 236 240 235 248 260 256 252 252 254 244 226 230 230 239 246 250 251 256 259 263 264 264 265 270 273